When you browse on this site, cookies collect data to enhance your experience and personalize the content and advertising you see.
Visit our Privacy Policy to learn more. By continuing to use the site, you agree to this use of cookies and data.
  • In Switzerland
  • List of Countries
  • For 7 days
  • Water Temperature
  • Weather Map
  • Weather Widgets
  • user-avatar
    Login

    Hourly Weather Mérida

    Today, 11 December, Wednesday

    Time Temperature Precipitation Wind Pressure Humidity
    00:00 +14°C° 0 mm 1 mps 592 mmHg 93%
    01:00 +13°C° 0 mm 1 mps 591 mmHg 92%
    02:00 +13°C° 0 mm 1 mps 591 mmHg 91%
    03:00 +13°C° 0 mm 1 mps 591 mmHg 89%
    04:00 +13°C° 0 mm 1 mps 591 mmHg 88%
    05:00 +13°C° 0 mm 1 mps 592 mmHg 84%
    06:00 +14°C° 0 mm 1 mps 592 mmHg 80%
    07:00 +15°C° 0 mm 1 mps 593 mmHg 76%
    08:00 +18°C° 0 mm 1 mps 594 mmHg 71%
    09:00 +19°C° 0 mm 2 mps 595 mmHg 65%
    10:00 +21°C° 0 mm 2 mps 596 mmHg 60%
    11:00 +20°C° 0.2 mm 2 mps 595 mmHg 67%
    12:00 +20°C° 0.2 mm 2 mps 594 mmHg 75%
    13:00 +19°C° 0.2 mm 2 mps 593 mmHg 82%
    14:00 +19°C° 0.2 mm 2 mps 593 mmHg 85%
    15:00 +19°C° 0.2 mm 1 mps 592 mmHg 88%
    16:00 +19°C° 0.2 mm 1 mps 591 mmHg 90%
    17:00 +18°C° 0.1 mm 1 mps 591 mmHg 92%
    18:00 +16°C° 0.1 mm 1 mps 591 mmHg 94%
    19:00 +15°C° 0.1 mm 1 mps 591 mmHg 96%
    20:00 +15°C° 0 mm 1 mps 592 mmHg 96%
    21:00 +15°C° 0 mm 1 mps 592 mmHg 95%
    22:00 +13°C° 0 mm 0 mps 592 mmHg 95%
    23:00 +13°C° 0 mm 0 mps 592 mmHg 94%

    Tomorrow, 12 December, Thursday

    Time Temperature Precipitation Wind Pressure Humidity
    00:00 +13°C° 0 mm 1 mps 591 mmHg 93%
    01:00 +13°C° 0 mm 1 mps 590 mmHg 92%
    02:00 +13°C° 0 mm 1 mps 590 mmHg 91%
    03:00 +12°C° 0 mm 1 mps 590 mmHg 91%
    04:00 +12°C° 0 mm 1 mps 590 mmHg 90%
    05:00 +13°C° 0 mm 1 mps 591 mmHg 86%
    06:00 +14°C° 0 mm 1 mps 591 mmHg 82%
    07:00 +15°C° 0 mm 1 mps 592 mmHg 78%
    08:00 +18°C° 0 mm 1 mps 593 mmHg 74%
    09:00 +19°C° 0 mm 1 mps 594 mmHg 69%
    10:00 +20°C° 0 mm 2 mps 595 mmHg 65%
    11:00 +20°C° 0.2 mm 2 mps 594 mmHg 72%
    12:00 +19°C° 0.2 mm 2 mps 593 mmHg 78%
    13:00 +19°C° 0.2 mm 2 mps 592 mmHg 85%
    14:00 +18°C° 0.3 mm 2 mps 592 mmHg 87%
    15:00 +19°C° 0.3 mm 1 mps 591 mmHg 90%
    16:00 +18°C° 0.3 mm 1 mps 590 mmHg 93%
    17:00 +18°C° 0.1 mm 1 mps 591 mmHg 94%
    18:00 +16°C° 0.1 mm 1 mps 591 mmHg 96%
    19:00 +16°C° 0.1 mm 1 mps 591 mmHg 97%
    20:00 +15°C° 0 mm 1 mps 591 mmHg 97%
    21:00 +15°C° 0 mm 1 mps 592 mmHg 97%
    22:00 +14°C° 0 mm 0 mps 592 mmHg 96%
    23:00 +14°C° 0 mm 0 mps 592 mmHg 96%

    Day after tomorrow, 13 December, Friday

    Time Temperature Precipitation Wind Pressure Humidity
    00:00 +13°C° 0 mm 0 mps 591 mmHg 96%
    01:00 +13°C° 0 mm 0 mps 591 mmHg 96%
    02:00 +13°C° 0 mm 0 mps 590 mmHg 95%
    03:00 +13°C° 0 mm 0 mps 590 mmHg 94%
    04:00 +13°C° 0 mm 0 mps 590 mmHg 93%
    05:00 +13°C° 0 mm 0 mps 591 mmHg 91%
    06:00 +14°C° 0 mm 0 mps 591 mmHg 88%
    07:00 +14°C° 0 mm 0 mps 592 mmHg 86%
    08:00 +18°C° 0.1 mm 1 mps 593 mmHg 82%
    09:00 +19°C° 0.1 mm 1 mps 594 mmHg 78%
    10:00 +20°C° 0.1 mm 2 mps 595 mmHg 74%
    11:00 +19°C° 0.4 mm 2 mps 594 mmHg 78%
    12:00 +19°C° 0.4 mm 2 mps 593 mmHg 83%
    13:00 +18°C° 0.4 mm 2 mps 592 mmHg 87%
    14:00 +18°C° 0.4 mm 2 mps 591 mmHg 88%
    15:00 +19°C° 0.4 mm 1 mps 591 mmHg 90%
    16:00 +18°C° 0.4 mm 1 mps 591 mmHg 91%
    17:00 +18°C° 0.1 mm 1 mps 591 mmHg 93%
    18:00 +15°C° 0.1 mm 0 mps 591 mmHg 95%
    19:00 +14°C° 0.1 mm 0 mps 591 mmHg 97%
    20:00 +14°C° 0 mm 0 mps 591 mmHg 96%
    21:00 +13°C° 0 mm 0 mps 591 mmHg 95%
    22:00 +13°C° 0 mm 0 mps 591 mmHg 94%
    23:00 +13°C° 0 mm 0 mps 591 mmHg 94%

    14 December, Saturday

    Time Temperature Precipitation Wind Pressure Humidity
    00:00 +12°C° 0 mm 0 mps 591 mmHg 94%
    01:00 +12°C° 0 mm 0 mps 590 mmHg 93%
    02:00 +13°C° 0 mm 1 mps 590 mmHg 92%
    03:00 +13°C° 0 mm 1 mps 590 mmHg 92%
    04:00 +13°C° 0 mm 1 mps 590 mmHg 91%
    05:00 +14°C° 0 mm 1 mps 591 mmHg 89%
    06:00 +15°C° 0 mm 1 mps 592 mmHg 87%
    07:00 +15°C° 0 mm 1 mps 593 mmHg 85%
    08:00 +18°C° 0 mm 1 mps 593 mmHg 81%
    09:00 +19°C° 0 mm 1 mps 594 mmHg 77%
    10:00 +20°C° 0 mm 2 mps 595 mmHg 73%
    11:00 +19°C° 0.2 mm 2 mps 594 mmHg 77%
    12:00 +19°C° 0.2 mm 2 mps 593 mmHg 81%
    13:00 +19°C° 0.2 mm 2 mps 593 mmHg 84%
    14:00 +20°C° 0.2 mm 1 mps 592 mmHg 86%
    15:00 +19°C° 0.2 mm 1 mps 592 mmHg 88%
    16:00 +19°C° 0.2 mm 1 mps 591 mmHg 90%
    17:00 +18°C° 0.1 mm 1 mps 591 mmHg 92%
    18:00 +15°C° 0.1 mm 0 mps 591 mmHg 94%
    19:00 +14°C° 0.1 mm 0 mps 591 mmHg 96%
    20:00 +14°C° 0.1 mm 0 mps 592 mmHg 95%
    21:00 +14°C° 0.1 mm 0 mps 592 mmHg 94%
    22:00 +13°C° 0.1 mm 0 mps 592 mmHg 93%
    23:00 +14°C° 0.1 mm 1 mps 592 mmHg 93%

    15 December, Sunday

    Time Temperature Precipitation Wind Pressure Humidity
    00:00 +14°C° 0.1 mm 1 mps 591 mmHg 94%
    01:00 +14°C° 0.1 mm 1 mps 591 mmHg 94%
    02:00 +13°C° 0 mm 1 mps 591 mmHg 94%
    03:00 +13°C° 0 mm 1 mps 591 mmHg 94%
    04:00 +13°C° 0 mm 1 mps 591 mmHg 93%
    05:00 +14°C° 0 mm 1 mps 591 mmHg 90%
    06:00 +15°C° 0 mm 1 mps 592 mmHg 87%
    07:00 +16°C° 0 mm 1 mps 593 mmHg 84%
    08:00 +18°C° 0.1 mm 1 mps 594 mmHg 81%
    09:00 +20°C° 0.1 mm 1 mps 595 mmHg 79%
    10:00 +20°C° 0.1 mm 2 mps 596 mmHg 76%
    11:00 +20°C° 0.6 mm 1 mps 595 mmHg 81%
    12:00 +20°C° 0.6 mm 1 mps 594 mmHg 87%
    13:00 +19°C° 0.6 mm 1 mps 593 mmHg 92%
    14:00 +19°C° 0.8 mm 1 mps 593 mmHg 93%
    15:00 +19°C° 0.8 mm 1 mps 592 mmHg 93%
    16:00 +19°C° 0.8 mm 1 mps 592 mmHg 94%
    17:00 +18°C° 0.6 mm 1 mps 592 mmHg 95%
    18:00 +15°C° 0.6 mm 0 mps 592 mmHg 96%
    19:00 +14°C° 0.6 mm 0 mps 592 mmHg 97%
    20:00 +14°C° 0.2 mm 0 mps 592 mmHg 96%
    21:00 +14°C° 0.2 mm 0 mps 592 mmHg 95%
    22:00 +14°C° 0.2 mm 0 mps 593 mmHg 94%
    23:00 +13°C° 0 mm 0 mps 592 mmHg 93%

    16 December, Monday

    Time Temperature Precipitation Wind Pressure Humidity
    00:00 +13°C° 0 mm 0 mps 592 mmHg 92%
    01:00 +13°C° 0 mm 1 mps 591 mmHg 91%
    02:00 +13°C° 0 mm 1 mps 591 mmHg 90%
    03:00 +13°C° 0 mm 1 mps 591 mmHg 88%
    04:00 +13°C° 0 mm 1 mps 590 mmHg 87%
    05:00 +13°C° 0 mm 1 mps 591 mmHg 85%
    06:00 +14°C° 0 mm 1 mps 592 mmHg 83%
    07:00 +15°C° 0 mm 1 mps 593 mmHg 82%
    08:00 +18°C° 0 mm 1 mps 594 mmHg 76%
    09:00 +19°C° 0 mm 1 mps 595 mmHg 70%
    10:00 +21°C° 0 mm 1 mps 596 mmHg 64%
    11:00 +20°C° 0.3 mm 2 mps 595 mmHg 70%
    12:00 +20°C° 0.3 mm 2 mps 594 mmHg 77%
    13:00 +19°C° 0.3 mm 2 mps 593 mmHg 83%
    14:00 +20°C° 0.7 mm 1 mps 593 mmHg 87%
    15:00 +19°C° 0.7 mm 1 mps 592 mmHg 91%
    16:00 +18°C° 0.7 mm 1 mps 591 mmHg 95%
    17:00 +18°C° 0.7 mm 1 mps 591 mmHg 95%
    18:00 +15°C° 0.7 mm 0 mps 591 mmHg 95%
    19:00 +14°C° 0.7 mm 0 mps 591 mmHg 95%
    20:00 +15°C° 0.3 mm 1 mps 592 mmHg 94%
    21:00 +15°C° 0.3 mm 1 mps 592 mmHg 93%
    22:00 +14°C° 0.3 mm 1 mps 592 mmHg 91%
    23:00 +14°C° 0 mm 1 mps 591 mmHg 91%
    Show more